{"data":{"norad_id":66518,"intl_designator":"2025-265C","name":"STARLINK-35962","alt_names":[],"object_type":"PAYLOAD","status":"ACTIVE","operator":null,"country":"US","launch_date":"2025-11-19","launch_site_code":"AFETR","launch_vehicle":null,"mission":null,"orbit_class":"UNKNOWN","rcs_meters":null,"size_class":null,"mass_kg":null,"dimensions":null,"purposes":["comms"],"wikipedia_slug":null,"has_3d_model":false,"image_url":null,"decayed_at":null,"tle_current":{"epoch":"2026-05-25T05:10:26.328000Z","epoch_age_seconds":50256,"freshness":"FRESH","line1":"1 66518U 25265C   26145.21558250  .00014129  00000+0  52185-3 0  9992","line2":"2 66518  43.0010 206.0575 0001177 274.8297  85.2420 15.27587564 28816","mean_motion":15.27587564,"eccentricity":0.0001177,"inclination_deg":43.001,"raan_deg":206.0575,"arg_perigee_deg":274.8297,"mean_anomaly_deg":85.242,"bstar":0.00052185,"rev_number":2881,"period_min":94.266281942578,"perigee_km":482.21888785829,"apogee_km":483.83400573367,"semimajor_km":6861.163446796,"source":"CELESTRAK","updated_at":"2026-05-25T13:38:21.249192Z"}}}